TimeHST,TemperatureF,Dew PointF,Humidity,Sea Level PressureIn,VisibilityMPH,Wind Direction,Wind SpeedMPH,Gust SpeedMPH,PrecipitationIn,Events,Conditions,WindDirDegrees,DateUTC
12:53 AM,73.0,61.0,66,30.05,10.0,East,4.6,-,N/A,,Partly Cloudy,80,2012-11-30 10:53:00
1:53 AM,72.0,61.0,68,30.04,10.0,East,5.8,-,N/A,,Mostly Cloudy,80,2012-11-30 11:53:00
2:53 AM,72.0,61.0,68,30.03,10.0,East,5.8,-,N/A,,Partly Cloudy,80,2012-11-30 12:53:00
3:53 AM,71.1,61.0,70,30.01,10.0,NE,3.5,-,N/A,,Clear,50,2012-11-30 13:53:00
4:53 AM,71.1,60.1,68,29.99,10.0,NE,5.8,-,N/A,,Clear,50,2012-11-30 14:53:00
5:53 AM,71.1,61.0,70,30.01,10.0,ENE,6.9,-,N/A,,Clear,70,2012-11-30 15:53:00
6:53 AM,70.0,57.9,65,30.03,10.0,ENE,3.5,-,N/A,,Clear,60,2012-11-30 16:53:00
7:53 AM,72.0,59.0,64,30.04,10.0,ENE,4.6,-,N/A,,Clear,60,2012-11-30 17:53:00
8:53 AM,77.0,62.1,60,30.06,10.0,Variable,3.5,-,N/A,,Clear,0,2012-11-30 18:53:00
9:53 AM,80.1,64.0,58,30.06,10.0,WNW,6.9,-,N/A,,Clear,290,2012-11-30 19:53:00
10:53 AM,78.1,63.0,60,30.05,10.0,WNW,8.1,-,N/A,,Clear,290,2012-11-30 20:53:00
11:53 AM,81.0,63.0,54,30.04,10.0,West,6.9,-,N/A,,Clear,270,2012-11-30 21:53:00
12:53 PM,81.0,62.1,52,30.01,10.0,WSW,6.9,-,N/A,,Clear,250,2012-11-30 22:53:00
1:53 PM,79.0,63.0,58,29.98,10.0,WNW,6.9,-,N/A,,Clear,290,2012-11-30 23:53:00
2:53 PM,80.1,64.0,58,29.97,10.0,West,8.1,-,N/A,,Clear,260,2012-12-01 00:53:00
3:53 PM,79.0,63.0,58,29.97,10.0,WSW,8.1,-,N/A,,Clear,250,2012-12-01 01:53:00
4:53 PM,79.0,63.0,58,29.99,10.0,WNW,5.8,-,N/A,,Clear,290,2012-12-01 02:53:00
5:53 PM,77.0,64.0,64,30.00,10.0,WNW,4.6,-,N/A,,Mostly Cloudy,290,2012-12-01 03:53:00
6:53 PM,75.9,64.0,67,30.02,10.0,Calm,Calm,-,N/A,,Clear,0,2012-12-01 04:53:00
7:53 PM,75.0,63.0,66,30.04,10.0,ESE,3.5,-,N/A,,Clear,110,2012-12-01 05:53:00
8:53 PM,73.9,62.1,66,30.06,10.0,East,4.6,-,N/A,,Clear,100,2012-12-01 06:53:00
9:53 PM,73.9,62.1,66,30.06,10.0,Calm,Calm,-,N/A,,Clear,0,2012-12-01 07:53:00
10:53 PM,73.0,61.0,66,30.06,10.0,Calm,Calm,-,N/A,,Clear,0,2012-12-01 08:53:00
11:53 PM,72.0,61.0,68,30.05,10.0,ENE,3.5,-,N/A,,Clear,70,2012-12-01 09:53:00